Date String (YYYY-MM-DD hh:mm:ss) UTC,Instrument flags,Ambient pressure (hPa),Sample flow (lpm),Bypass flow (lpm),Sample temperature (°C),Ambient temperature (°C),ASC tube jacket temperature (°C),LED temperature (°C),Box temperature (°C),Sample RH (%),Span deviation,Mass concentration (μg/m³),Mass concentration (μg/m³),Mass concentration (μg/m³)
DateTimeUTC,F1_M11,P_M11,Q1_M11,Q2_M11,T1_M11,T2_M11,T3_M11,T4_M11,T5_M11,U1_M11,ZSPAN_M11,X0_M11,X2_M11,X1_M11
2021-09-10 02:00:00,,0829.2,5.01,0.00,29.2,28.4,00.0,38.1,31.2,12.4,0000.1,0035.56,0021.52,0019.74
2021-09-10 02:01:00,,0829.2,5.00,0.00,29.3,28.6,00.0,38.1,31.2,12.4,-000.1,0035.59,0021.56,0019.76
2021-09-10 02:02:00,,0829.2,5.00,0.00,29.3,27.8,00.0,38.2,31.0,12.4,0000.1,0035.36,0021.54,0019.76
2021-09-10 02:03:00,,0829.3,5.01,0.00,29.1,25.7,00.0,38.1,30.4,12.5,0000.4,0035.68,0021.61,0019.78
2021-09-10 02:04:00,,0829.2,4.98,0.00,29.0,25.3,00.0,38.1,30.3,12.6,0000.4,0036.70,0021.70,0019.79
2021-09-10 02:05:00,,0829.3,5.01,0.00,28.9,25.7,00.0,38.1,30.4,12.7,0000.3,0037.21,0021.72,0019.80
2021-09-10 02:06:00,,0829.3,5.00,0.00,28.9,26.2,00.0,38.1,30.5,12.7,0000.2,0037.43,0021.68,0019.80
2021-09-10 02:07:00,,0829.3,5.01,0.00,28.9,26.7,00.0,38.0,30.6,12.7,0000.3,0037.28,0021.69,0019.81
2021-09-10 02:08:00,,0829.4,5.00,0.00,28.9,27.1,00.0,38.0,30.7,12.7,0001.0,0037.42,0021.75,0019.80
2021-09-10 02:09:00,,0829.4,4.99,0.00,29.0,27.5,00.0,38.0,30.8,12.6,0001.1,0038.24,0021.82,0019.83
2021-09-10 02:10:00,,0829.3,4.99,0.00,29.1,27.8,00.0,38.0,30.9,12.6,0000.8,0038.04,0021.78,0019.86
2021-09-10 02:11:00,,0829.4,5.00,0.00,29.1,28.0,00.0,38.1,31.0,12.6,0000.9,0038.95,0021.80,0019.89
2021-09-10 02:12:00,,0829.5,5.01,0.00,29.2,28.2,00.0,38.1,31.1,12.5,0001.2,0040.38,0021.83,0019.90
2021-09-10 02:13:00,,0829.5,5.00,0.00,29.2,28.4,00.0,38.1,31.1,12.4,0001.3,0040.56,0021.81,0019.91
2021-09-10 02:14:00,,0829.5,5.01,0.00,29.3,28.5,00.0,38.2,31.2,12.4,0001.7,0041.41,0021.86,0019.92
2021-09-10 02:15:00,,0829.5,5.00,0.00,29.3,28.3,00.0,38.2,31.2,12.3,0001.9,0041.59,0021.91,0019.95
2021-09-10 02:16:00,,0829.5,5.00,0.00,29.2,26.7,00.0,38.2,30.8,12.4,0002.4,0041.70,0021.93,0020.00
2021-09-10 02:17:00,,0829.5,5.00,0.00,29.1,26.3,00.0,38.2,30.7,12.4,0002.4,0041.85,0021.95,0020.02
2021-09-10 02:18:00,,0829.5,5.01,0.00,29.1,26.6,00.0,38.2,30.7,12.4,0002.3,0042.32,0021.99,0020.04
2021-09-10 02:19:00,,0829.5,4.99,0.00,29.1,27.0,00.0,38.2,30.8,12.5,0001.5,0041.51,0022.07,0020.08
2021-09-10 02:20:00,,0829.6,5.00,0.00,29.1,27.3,00.0,38.1,30.9,12.5,0001.5,0040.12,0022.04,0020.11
2021-09-10 02:21:00,,0829.5,5.00,0.00,29.1,27.7,00.0,38.1,31.0,12.5,0001.2,0040.51,0022.05,0020.10
2021-09-10 02:22:00,,0829.5,5.00,0.00,29.2,27.9,00.0,38.2,31.0,12.4,0000.5,0040.07,0022.10,0020.11
2021-09-10 02:23:00,,0829.5,5.00,0.00,29.2,28.2,00.0,38.2,31.1,12.4,0000.2,0038.72,0022.13,0020.11
2021-09-10 02:24:00,,0829.5,5.00,0.00,29.3,28.4,00.0,38.2,31.2,12.3,-000.2,0038.98,0022.24,0020.15
2021-09-10 02:25:00,,0829.5,5.00,0.00,29.3,28.5,00.0,38.2,31.3,12.3,0000.1,0037.98,0022.21,0020.18
2021-09-10 02:26:00,,0829.5,5.00,0.00,29.4,27.8,00.0,38.3,31.1,12.3,0000.1,0037.29,0022.14,0020.17
2021-09-10 02:27:00,,0829.5,5.01,0.00,29.2,25.8,00.0,38.2,30.5,12.3,-000.3,0037.07,0022.14,0020.18
2021-09-10 02:28:00,,0829.5,5.00,0.00,29.0,25.3,00.0,38.2,30.4,12.4,-000.5,0036.25,0022.12,0020.19
2021-09-10 02:29:00,,0829.5,4.99,0.00,29.0,25.7,00.0,38.2,30.4,12.5,-000.5,0035.75,0022.15,0020.21
2021-09-10 02:30:00,,0829.5,5.01,0.00,28.9,26.2,00.0,38.1,30.5,12.5,0000.2,0035.93,0022.16,0020.23
2021-09-10 02:31:00,,0829.6,4.99,0.00,28.9,26.7,00.0,38.1,30.6,12.5,-000.2,0036.40,0022.20,0020.24
2021-09-10 02:32:00,,0829.6,5.01,0.00,29.0,27.1,00.0,38.1,30.7,12.5,0000.2,0036.87,0022.30,0020.27
2021-09-10 02:33:00,,0829.6,5.01,0.00,29.0,27.5,00.0,38.1,30.8,12.4,0001.0,0036.73,0022.27,0020.26
2021-09-10 02:34:00,,0829.6,4.99,0.00,29.1,27.8,00.0,38.1,30.9,12.4,0001.7,0037.14,0022.22,0020.29
2021-09-10 02:35:00,,0829.6,5.01,0.00,29.1,28.0,00.0,38.1,31.0,12.4,0001.2,0036.25,0022.10,0020.24
2021-09-10 02:36:00,,0829.5,5.01,0.00,29.2,28.2,00.0,38.2,31.1,12.3,0000.6,0036.57,0022.13,0020.21
2021-09-10 02:37:00,,0829.6,4.98,0.00,29.2,28.4,00.0,38.2,31.1,12.3,0000.4,0037.15,0022.17,0020.23
2021-09-10 02:38:00,,0829.5,5.00,0.00,29.3,28.5,00.0,38.2,31.2,12.2,0000.6,0037.46,0022.15,0020.22
2021-09-10 02:39:00,,0829.6,5.01,0.00,29.4,28.6,00.0,38.2,31.3,12.2,0000.8,0037.45,0022.14,0020.24
2021-09-10 02:40:00,,0829.6,5.00,0.00,29.3,27.5,00.0,38.3,31.0,12.2,0000.6,0037.95,0022.04,0020.23
2021-09-10 02:41:00,,0829.6,5.01,0.00,29.2,25.5,00.0,38.2,30.5,12.3,-000.0,0037.90,0021.96,0020.20
2021-09-10 02:42:00,,0829.6,5.00,0.00,29.0,25.3,00.0,38.2,30.4,12.3,-000.1,0038.36,0021.96,0020.22
2021-09-10 02:43:00,,0829.6,4.99,0.00,29.0,25.7,00.0,38.2,30.5,12.4,-000.2,0037.67,0021.87,0020.23
2021-09-10 02:44:00,,0829.6,5.00,0.00,28.9,26.2,00.0,38.1,30.6,12.4,-000.0,0037.27,0021.84,0020.25
2021-09-10 02:45:00,,0829.6,4.98,0.00,29.0,26.7,00.0,38.1,30.7,12.4,-000.4,0036.90,0021.87,0020.25
2021-09-10 02:46:00,,0829.8,5.01,0.00,29.0,27.1,00.0,38.1,30.7,12.3,-000.1,0036.98,0021.89,0020.28
2021-09-10 02:47:00,,0829.9,4.99,0.00,29.0,27.5,00.0,38.1,30.8,12.3,-000.4,0036.96,0021.91,0020.30
2021-09-10 02:48:00,,0830.0,5.00,0.00,29.1,27.7,00.0,38.1,30.9,12.3,-000.4,0036.41,0021.88,0020.30
2021-09-10 02:49:00,,0829.8,5.00,0.00,29.1,28.0,00.0,38.1,31.0,12.3,-000.7,0035.75,0021.88,0020.31
2021-09-10 02:50:00,,0829.7,4.99,0.00,29.2,28.2,00.0,38.1,31.0,12.2,-000.8,0036.01,0021.98,0020.33
2021-09-10 02:51:00,,0829.6,5.01,0.00,29.2,28.3,00.0,38.2,31.1,12.2,-000.8,0035.79,0022.03,0020.36
2021-09-10 02:52:00,,0829.7,5.00,0.00,29.3,28.5,00.0,38.2,31.2,12.2,-001.0,0035.63,0022.08,0020.38
2021-09-10 02:53:00,,0829.7,5.00,0.00,29.3,28.6,00.0,38.2,31.2,12.1,-001.1,0035.16,0022.06,0020.38
2021-09-10 02:54:00,,0829.7,4.98,0.00,29.4,28.7,00.0,38.2,31.3,12.0,-000.5,0033.79,0022.07,0020.37
2021-09-10 02:55:00,,0829.7,5.01,0.00,29.4,27.4,00.0,38.3,31.0,12.0,-000.5,0033.91,0022.16,0020.42
2021-09-10 02:56:00,,0829.7,5.00,0.00,29.2,26.2,00.0,38.3,30.7,12.1,-000.6,0034.14,0022.26,0020.49
2021-09-10 02:57:00,,0829.8,5.00,0.00,29.2,26.4,00.0,38.3,30.7,12.2,-000.6,0034.21,0022.30,0020.52
2021-09-10 02:58:00,,0829.7,4.99,0.00,29.1,26.8,00.0,38.2,30.8,12.2,-000.4,0034.35,0022.34,0020.55
2021-09-10 02:59:00,,0829.7,5.01,0.00,29.1,27.1,00.0,38.2,30.8,12.2,-000.4,0035.24,0022.31,0020.58
